2023/09/21 00:00:00, 2.9,22.8
2023/09/21 00:10:00, 2.7,22.4
2023/09/21 00:20:00, 2.7,22.1
2023/09/21 00:30:00, 4.7,22.1
2023/09/21 00:40:00, 3.2,21.8
2023/09/21 00:50:00, 3.8,21.6
2023/09/21 01:00:00, 3.0,21.8
2023/09/21 01:10:00, 3.0,21.9
2023/09/21 01:20:00, 3.4,21.8
2023/09/21 01:30:00,14.8,21.9
2023/09/21 01:40:00,14.3,21.8
2023/09/21 01:50:00,13.7,22.3
2023/09/21 02:00:00,12.9,23.1
2023/09/21 02:10:00,12.2,24.0
2023/09/21 02:20:00,12.3,24.0
2023/09/21 02:30:00,12.7,24.0
2023/09/21 02:40:00, 8.8,24.0
2023/09/21 02:50:00, 3.9,24.3
2023/09/21 03:00:00, 3.2,24.3
2023/09/21 03:10:00, 3.1,24.4
2023/09/21 03:20:00, 5.1,24.6
2023/09/21 03:30:00,12.1,24.6
2023/09/21 03:40:00,12.3,24.6
2023/09/21 03:50:00,12.2,24.3
2023/09/21 04:00:00,11.9,24.6
2023/09/21 04:10:00,11.9,24.7
2023/09/21 04:20:00,12.3,24.7
2023/09/21 04:30:00,13.0,25.0
2023/09/21 04:40:00,13.8,25.0
2023/09/21 04:50:00, 3.7,25.2
2023/09/21 05:00:00, 3.5,25.1
2023/09/21 05:10:00, 3.2,25.3
2023/09/21 05:20:00, 3.2,25.3
2023/09/21 05:30:00, 3.4,25.3
2023/09/21 05:40:00,12.8,25.5
2023/09/21 05:50:00,12.8,25.4
2023/09/21 06:00:00,12.1,25.4
2023/09/21 06:10:00,11.6,25.5
2023/09/21 06:20:00,11.6,25.7
2023/09/21 06:30:00,11.7,25.6
2023/09/21 06:40:00,12.0,26.0
2023/09/21 06:50:00,12.1,25.4
2023/09/21 07:00:00,12.1,25.5
2023/09/21 07:10:00,12.2,25.4
2023/09/21 07:20:00,12.0,25.8
2023/09/21 07:30:00,11.6,25.8
2023/09/21 07:40:00,11.6,25.7
2023/09/21 07:50:00,11.7,25.7
2023/09/21 08:00:00,11.9,25.7
2023/09/21 08:10:00,12.0,25.6
2023/09/21 08:20:00,12.0,25.9
2023/09/21 08:30:00,11.9,25.8
2023/09/21 08:40:00,11.6,25.8
2023/09/21 08:50:00,11.5,25.9
2023/09/21 09:00:00,11.5,25.7
2023/09/21 09:10:00,11.7,25.7
2023/09/21 09:20:00,11.7,25.4
2023/09/21 09:30:00,11.7,25.0
2023/09/21 09:40:00,11.7,24.1
2023/09/21 09:50:00, 3.9,24.2
2023/09/21 10:00:00, 3.0,24.4
2023/09/21 10:10:00, 3.1,23.5
2023/09/21 10:20:00, 3.0,23.3
2023/09/21 10:30:00, 3.0,23.3
2023/09/21 10:40:00, 3.0,23.4
2023/09/21 10:50:00, 2.9,23.0
2023/09/21 11:00:00, 2.9,23.0
2023/09/21 11:10:00, 2.9,22.6
2023/09/21 11:20:00, 7.3,22.8
2023/09/21 11:30:00, 8.0,23.0
2023/09/21 11:40:00, 3.1,23.0
2023/09/21 11:50:00, 2.9,22.7
2023/09/21 12:00:00, 2.8,23.1
2023/09/21 12:10:00, 2.8,23.6
2023/09/21 12:20:00, 2.7,23.9
2023/09/21 12:30:00, 2.8,24.0
2023/09/21 12:40:00, 3.0,24.3
2023/09/21 12:50:00, 3.1,24.6
2023/09/21 13:00:00, 3.1,25.0
2023/09/21 13:10:00, 9.9,24.4
2023/09/21 13:20:00,13.6,24.2
2023/09/21 13:30:00,13.7,24.3
2023/09/21 13:40:00,13.6,24.3
2023/09/21 13:50:00,13.5,24.2
2023/09/21 14:00:00,10.8,24.7
2023/09/21 14:10:00,10.0,24.0
2023/09/21 14:20:00,12.8,23.8
2023/09/21 14:30:00,13.0,23.7
2023/09/21 14:40:00,13.3,22.8
2023/09/21 14:50:00,13.8,23.1
2023/09/21 15:00:00,14.0,23.0
2023/09/21 15:10:00, 7.6,23.2
2023/09/21 15:20:00, 3.3,22.9
2023/09/21 15:30:00, 3.3,22.9
2023/09/21 15:40:00, 8.6,22.8
2023/09/21 15:50:00,12.6,23.0
2023/09/21 16:00:00,12.0,23.1
2023/09/21 16:10:00,11.8,22.9
2023/09/21 16:20:00,11.5,22.6
2023/09/21 16:30:00,12.0,22.8
2023/09/21 16:40:00,12.4,22.8
2023/09/21 16:50:00,12.5,22.4
2023/09/21 17:00:00,12.4,22.1
2023/09/21 17:10:00,12.3,21.9
2023/09/21 17:20:00,12.5,21.8
2023/09/21 17:30:00,12.3,21.5
2023/09/21 17:40:00,12.1,21.0
2023/09/21 17:50:00,11.7,21.0
2023/09/21 18:00:00,11.1,20.9
2023/09/21 18:10:00,10.6,20.6
2023/09/21 18:20:00,10.4,20.7
2023/09/21 18:30:00,10.3,20.6
2023/09/21 18:40:00,10.1,20.6
2023/09/21 18:50:00,10.0,20.6
2023/09/21 19:00:00, 9.8,20.8
2023/09/21 19:10:00, 9.7,20.6
2023/09/21 19:20:00, 9.6,20.6
2023/09/21 19:30:00, 9.4,20.5
2023/09/21 19:40:00, 9.3,20.4
2023/09/21 19:50:00, 9.1,20.7
2023/09/21 20:00:00, 9.0,20.7
2023/09/21 20:10:00, 8.9,20.8
2023/09/21 20:20:00, 8.9,20.4
2023/09/21 20:30:00, 9.0,20.7
2023/09/21 20:40:00, 9.1,20.6
2023/09/21 20:50:00, 9.3,20.4
2023/09/21 21:00:00, 9.5,20.4
2023/09/21 21:10:00, 9.7,20.5
2023/09/21 21:20:00, 9.8,20.5
2023/09/21 21:30:00,10.0,20.4
2023/09/21 21:40:00,10.1,20.5
2023/09/21 21:50:00,10.2,20.4
2023/09/21 22:00:00,10.1,20.4
2023/09/21 22:10:00, 9.1,20.4
2023/09/21 22:20:00, 4.3,20.3
2023/09/21 22:30:00, 2.9,20.2
2023/09/21 22:40:00, 2.5,20.3
2023/09/21 22:50:00, 2.5,20.5
2023/09/21 23:00:00, 3.2,20.2
2023/09/21 23:10:00, 2.9,20.2
2023/09/21 23:20:00, 6.3,20.3
2023/09/21 23:30:00,13.1,20.4
2023/09/21 23:40:00,---,20.2
2023/09/21 23:50:00,14.8,20.4
